Location: Carrer del Canonge
(41.4901°N, 2.2931°E)
Time: 01:02:56
(UTC+00:00)

NOSS 2-2 (E) - Visible Passes

Search period start: 24 January 2021 00:00
Search period end: 03 February 2021 00:00
Orbit: 465 x 1741 km, 63.3° (Epoch: 16 January)

Date Brightness Start Highest point End Pass type
(mag) Time Alt. Az. Time Alt. Az. Time Alt. Az.
24 Jan 5.9 19:00:36 10° N 19:03:03 19° NNE 19:03:03 19° NNE visible
24 Jan 6.9 20:50:04 10° NW 20:50:27 12° NW 20:50:27 12° NW visible
25 Jan 6.0 18:15:44 10° N 18:18:48 15° NE 18:19:15 15° NE visible
25 Jan 6.0 20:04:34 10° NNW 20:06:39 25° NNW 20:06:39 25° NNW visible
26 Jan 5.3 19:19:12 10° NNW 19:22:58 35° NNE 19:22:58 35° NNE visible
26 Jan 6.9 21:09:30 10° NW 21:10:23 15° NW 21:10:23 15° NW visible
27 Jan 5.4 18:34:00 10° NNW 18:38:42 27° NE 18:39:25 26° NE visible
27 Jan 5.8 20:23:43 10° NW 20:26:51 35° NW 20:26:51 35° NW visible
28 Jan 5.8 17:48:58 10° N 17:52:42 18° NE 17:56:04 13° ENE visible
28 Jan 4.6 19:38:08 10° NNW 19:43:31 73° NNE 19:43:31 73° NNE visible
28 Jan 7.1 21:29:42 10° WNW 21:30:58 15° WNW 21:30:58 15° WNW visible
29 Jan 4.8 18:52:43 10° NNW 18:58:17 50° NE 19:00:27 38° E visible
29 Jan 6.1 20:43:22 10° NW 20:47:55 34° W 20:47:55 34° W visible
30 Jan 5.2 18:07:25 10° NNW 18:12:29 33° NE 18:17:47 15° ESE visible
30 Jan 5.2 19:57:26 10° NW 20:03:25 56° WSW 20:05:18 45° SSW visible
31 Jan 4.7 19:11:45 10° NW 19:17:43 86° WSW 19:23:22 21° SSE visible
31 Jan 7.0 21:04:02 10° WNW 21:08:21 18° WSW 21:10:57 15° SW visible
01 Feb 4.6 18:26:15 10° NNW 18:32:00 63° NE 18:39:57 10° SE visible
01 Feb 6.4 20:17:19 10° WNW 20:22:46 29° WSW 20:29:39 10° S visible
02 Feb 5.0 17:40:54 10° NNW 17:46:14 41° NE 17:53:25 10° ESE visible
02 Feb 5.8 19:31:13 10° NW 19:37:06 45° WSW 19:44:59 10° S visible
